541  
ASUS41 KRLX 160610  
RWRRLX  
REGIONAL WEATHER ROUNDUP  
NATIONAL WEATHER SERVICE CHARLESTON WV  
200 AM EDT THU AUG 16 2018  
 
NOTE: "FAIR" INDICATES FEW OR NO CLOUDS BELOW 12,000 FEET WITH NO  
SIGNIFICANT WEATHER AND/OR S TO VISIBILITY
.  
 
WVZ003-160700-  
NORTHERN PANHANDLE OF WEST VIRGINIA  
 
CITY SKY/WX TMP DP RH WIND PRES REMARKS
 
WHEELING MOCLDY 73 68 84 S6 30.09F  

 
 
WVZ009-160700-  
NORTHWEST WEST VIRGINIA  
 
CITY SKY/WX TMP DP RH WIND PRES REMARKS
 
PARKERSBURG MOCLDY 72 68 87 CALM 30.12F  

 
 
WVZ006-160700-  
WESTERN WEST VIRGINIA  
 
CITY SKY/WX TMP DP RH WIND PRES REMARKS
 
HUNTINGTON FAIR 69 67 93 N5 30.09S FOG  

 
 
WVZ015-160700-  
WEST CENTRAL WEST VIRGINIA  
 
CITY SKY/WX TMP DP RH WIND PRES REMARKS
 
CHARLESTON CLOUDY 71 70 96 CALM 30.11S  

 
 
WVZ022-031-160700-  
NORTH CENTRAL WEST VIRGINIA  
 
CITY SKY/WX TMP DP RH WIND PRES REMARKS
 
MORGANTOWN FAIR 70 68 93 CALM 30.12F  
CLARKSBURG FAIR 72 68 87 CALM 30.12S  
BUCKHANNON FAIR 70 66 88 CALM 30.14F  

 
 
WVZ025-035-042-045-160700-  
SOUTHERN WEST VIRGINIA  
 
CITY SKY/WX TMP DP RH WIND PRES REMARKS
 
BECKLEY FAIR 65 60 84 E3 30.20S  
LOGAN MOCLDY 72 66 83 CALM 30.14S  
PINEVILLE FAIR 68 67 96 MISG 30.21S  
BLUEFIELD FAIR 66 61 84 CALM 30.22F  
LEWISBURG FAIR 65 64 96 CALM 30.20F  

 
 
WVZ047-160700-  
NORTHERN MOUNTAINS OF WEST VIRGINIA  
 
CITY SKY/WX TMP DP RH WIND PRES REMARKS
 
ELKINS FAIR 63 61 93 CALM 30.18F FOG  

 
 
WVZ052-160700-  
EASTERN PANHANDLE OF WEST VIRGINIA  
 
CITY SKY/WX TMP DP RH WIND PRES REMARKS
 
MARTINSBURG FAIR 68 67 96 CALM 30.07S  
PETERSBURG FAIR 65 65 99 CALM 30.13S FOG  

 
 
SOUTHEAST OHIO/NORTHEAST KENTUCKY  
 
CITY SKY/WX TMP DP RH WIND PRES REMARKS
 
ATHENS CLOUDY 70 70 100 CALM 30.09F  
ASHLAND FAIR 70 70 100 CALM 30.09S FOG  

 
 
 
CLICK HERE TO GO TO PREVIOUS BULLETINS.

The Nexlab WV Page
The Nexlab OH Page
The Nexlab KY Page
The Nexlab VA Page Main Text Page